| time (UTC) | temp C | wind direction | speed KPH | gust KPH | rain 1hr cm | rain 24hr cm | rain mn cm | humidity % | barometer mb |
| 20260503190306 | 16 | 261 | 9.7 | 14.5 | 0.00 | 0.15 | 0.15 | 89 | 1011.8 |
| 20260503185803 | 16 | 29 | 4.8 | 8.0 | 0.00 | 0.15 | 0.15 | 89 | 1011.4 |
| 20260503185304 | 16 | 51 | 6.4 | 9.7 | 0.00 | 0.15 | 0.15 | 89 | 1011.3 |
| 20260503184806 | 16 | 54 | 8.0 | 12.9 | 0.00 | 0.15 | 0.15 | 89 | 1011.2 |
| 20260503184303 | 16 | 35 | 9.7 | 12.9 | 0.00 | 0.15 | 0.15 | 89 | 1011.3 |
| 20260503182305 | 16 | 21 | 9.7 | 12.9 | 0.00 | 0.15 | 0.15 | 89 | 1011.4 |
| 20260503180804 | 16 | 6 | 9.7 | 11.3 | 0.00 | 0.15 | 0.15 | 89 | 1011.5 |
| 20260503180306 | 16 | 347 | 8.0 | 12.9 | 0.00 | 0.15 | 0.15 | 89 | 1011.5 |
| 20260503175803 | 16 | 13 | 11.3 | 14.5 | 0.00 | 0.15 | 0.15 | 89 | 1011.5 |
| 20260503175304 | 16 | 12 | 9.7 | 14.5 | 0.00 | 0.15 | 0.15 | 90 | 1011.5 |
| 20260503173803 | 16 | 356 | 12.9 | 19.3 | 0.00 | 0.15 | 0.15 | 90 | 1011.4 |
| 20260503171806 | 16 | 349 | 12.9 | 14.5 | 0.00 | 0.15 | 0.15 | 90 | 1011.6 |
| 20260503171304 | 16 | 352 | 11.3 | 14.5 | 0.00 | 0.15 | 0.15 | 91 | 1011.6 |
| 20260503170306 | 16 | 348 | 9.7 | 11.3 | 0.00 | 0.15 | 0.15 | 91 | 1011.7 |
| 20260503131304 | 17 | 19 | 11.3 | 19.3 | 0.00 | 0.69 | 0.08 | 87 | 1012.1 |
| 20260503080803 | 15 | 344 | 1.6 | 4.8 | 0.00 | 0.89 | 0.08 | 95 | 1013.6 |
| 20260503072803 | 15 | 201 | 0.0 | 1.6 | 0.00 | 1.12 | 0.08 | 95 | 1013.3 |
| 20260503071303 | 14 | 201 | 1.6 | 4.8 | 0.00 | 1.12 | 0.08 | 95 | 1013.3 |
| 20260503070804 | 13 | 201 | 0.0 | 1.6 | 0.00 | 1.12 | 0.08 | 95 | 1013.3 |
| 20260503060306 | 13 | 190 | 1.6 | 3.2 | 0.00 | 1.12 | 0.08 | 94 | 1013.1 |
| 20260503053804 | 13 | 174 | 4.8 | 9.7 | 0.00 | 1.12 | 0.08 | 94 | 1013.0 |
| 20260503053307 | 13 | 141 | 8.0 | 12.9 | 0.00 | 1.12 | 0.08 | 94 | 1013.0 |
| 20260503051303 | 13 | 180 | 3.2 | 4.8 | 0.00 | 1.12 | 0.08 | 94 | 1013.0 |
| 20260503050803 | 13 | 173 | 3.2 | 4.8 | 0.00 | 1.12 | 0.08 | 94 | 1013.0 |
| 20260503045305 | 13 | 180 | 3.2 | 4.8 | 0.00 | 1.12 | 0.08 | 94 | 1013.0 |
| 20260503044806 | 13 | 170 | 3.2 | 8.0 | 0.00 | 1.12 | 0.08 | 94 | 1013.1 |
| 20260503043804 | 13 | 176 | 3.2 | 4.8 | 0.00 | 1.12 | 0.08 | 94 | 1012.9 |
| 20260503041807 | 13 | 201 | 4.8 | 8.0 | 0.00 | 1.12 | 0.08 | 94 | 1012.9 |
| 20260503040306 | 13 | 206 | 4.8 | 9.7 | 0.00 | 1.12 | 0.08 | 94 | 1012.9 |
| 20260503034806 | 13 | 197 | 4.8 | 4.8 | 0.00 | 1.12 | 0.08 | 94 | 1013.1 |
| 20260503032803 | 14 | 204 | 4.8 | 8.0 | 0.00 | 1.12 | 0.08 | 94 | 1013.1 |
| 20260503031304 | 14 | 192 | 3.2 | 4.8 | 0.00 | 1.12 | 0.08 | 94 | 1013.1 |
| 20260503030803 | 14 | 183 | 3.2 | 4.8 | 0.00 | 1.12 | 0.08 | 94 | 1013.1 |
| 20260503025803 | 14 | 171 | 3.2 | 4.8 | 0.00 | 1.12 | 0.08 | 94 | 1013.2 |
| 20260503025305 | 14 | 207 | 3.2 | 4.8 | 0.00 | 1.12 | 0.08 | 94 | 1013.2 |
| 20260503023306 | 14 | 197 | 1.6 | 4.8 | 0.00 | 1.12 | 0.08 | 94 | 1013.3 |
| 20260503022803 | 14 | 197 | 3.2 | 4.8 | 0.00 | 1.12 | 0.08 | 94 | 1013.3 |
| 20260503022305 | 14 | 201 | 3.2 | 4.8 | 0.00 | 1.12 | 0.08 | 94 | 1013.3 |
| 20260503021806 | 14 | 206 | 4.8 | 8.0 | 0.00 | 1.12 | 0.08 | 93 | 1013.4 |
| 20260503020306 | 14 | 212 | 3.2 | 4.8 | 0.00 | 1.12 | 0.08 | 93 | 1013.4 |
| 20260503015803 | 14 | 197 | 4.8 | 9.7 | 0.00 | 1.12 | 0.08 | 93 | 1013.6 |
| 20260503015305 | 14 | 225 | 4.8 | 8.0 | 0.00 | 1.12 | 0.08 | 93 | 1013.6 |
| 20260503013305 | 15 | 157 | 0.0 | 0.0 | 0.00 | 1.12 | 0.08 | 93 | 1013.6 |
| 20260503012803 | 15 | 157 | 0.0 | 4.8 | 0.00 | 1.12 | 0.08 | 93 | 1013.6 |
| 20260503012305 | 15 | 157 | 1.6 | 4.8 | 0.00 | 1.12 | 0.08 | 93 | 1013.7 |
| 20260503011304 | 15 | 157 | 0.0 | 4.8 | 0.00 | 1.12 | 0.08 | 93 | 1014.0 |
| 20260503001805 | 15 | 209 | 0.0 | 4.8 | 0.08 | 1.12 | 0.08 | 93 | 1014.3 |
| 20260502235803 | 15 | 209 | 3.2 | 4.8 | 0.08 | 1.12 | 0.08 | 93 | 1014.4 |
| 20260502234807 | 15 | 210 | 3.2 | 4.8 | 0.08 | 1.12 | 0.08 | 93 | 1014.4 |
| 20260502233803 | 15 | 249 | 1.6 | 4.8 | 0.05 | 1.09 | 0.05 | 93 | 1014.5 |
| 20260502232803 | 15 | 240 | 6.4 | 8.0 | 0.05 | 1.09 | 0.05 | 93 | 1014.5 |
| 20260502230806 | 15 | 235 | 4.8 | 8.0 | 0.00 | 1.04 | 0.00 | 93 | 1014.5 |
| 20260502225803 | 15 | 228 | 6.4 | 11.3 | 0.00 | 1.04 | 0.00 | 93 | 1014.5 |
| 20260502224806 | 15 | 238 | 4.8 | 8.0 | 0.00 | 1.04 | 0.00 | 93 | 1014.5 |
| 20260502223804 | 15 | 238 | 3.2 | 4.8 | 0.00 | 1.04 | 0.00 | 93 | 1014.5 |
| 20260502223306 | 15 | 238 | 3.2 | 4.8 | 0.00 | 1.04 | 0.00 | 93 | 1014.6 |
| 20260502215305 | 15 | 239 | 4.8 | 8.0 | 0.00 | 1.04 | 1.04 | 93 | 1014.6 |
| 20260502214806 | 15 | 239 | 4.8 | 8.0 | 0.00 | 1.04 | 1.04 | 93 | 1014.6 |
| 20260502213803 | 15 | 239 | 4.8 | 9.7 | 0.00 | 1.04 | 1.04 | 93 | 1014.7 |
| 20260502213307 | 15 | 239 | 6.4 | 9.7 | 0.00 | 1.04 | 1.04 | 93 | 1014.7 |
| 20260502210804 | 15 | 195 | 3.2 | 4.8 | 0.00 | 1.04 | 1.04 | 93 | 1014.7 |
| 20260502210306 | 15 | 180 | 4.8 | 4.8 | 0.00 | 1.04 | 1.04 | 93 | 1014.8 |
| 20260502205305 | 15 | 208 | 3.2 | 8.0 | 0.00 | 1.04 | 1.04 | 93 | 1014.8 |
| 20260502203306 | 15 | 215 | 4.8 | 8.0 | 0.00 | 1.04 | 1.04 | 93 | 1014.7 |
| 20260502202305 | 15 | 219 | 8.0 | 14.5 | 0.00 | 1.04 | 1.04 | 93 | 1014.7 |
| 20260502201807 | 15 | 208 | 4.8 | 11.3 | 0.00 | 1.04 | 1.04 | 93 | 1014.6 |
| 20260502201303 | 15 | 227 | 6.4 | 11.3 | 0.00 | 1.04 | 1.04 | 92 | 1014.6 |
| 20260502195803 | 15 | 257 | 9.7 | 14.5 | 0.00 | 1.04 | 1.04 | 92 | 1014.6 |
| 20260502194805 | 15 | 249 | 9.7 | 14.5 | 0.00 | 1.04 | 1.04 | 92 | 1014.6 |
| 20260502193305 | 15 | 268 | 9.7 | 12.9 | 0.00 | 1.04 | 1.04 | 92 | 1014.6 |